Back to catalog

COSMOS 2251 DEB

AliveLEO
NORAD 34997·DEBRIS·🇷🇺 Russia

Launched Jun 16, 1993 from Plesetsk Cosmodrome

Loading…

Next Passes (next 24 hours)

TLE

FreshSource: Space-Track

Epoch: Sep 14, 2026, 10:08 UTC

1 34997U 93036AFV 26257.42249980  .00002789  00000-0  72202-3 0  9995
2 34997  73.8773 151.0138 0090326  70.5064 290.5823 14.47917065747348

Track COSMOS 2251 DEB in real time with AllMySat

Download on the App Store